Regional Weather Roundup
Issued by NWS

Home | Current Version | Previous Version | Graphics & Text | Print | Product List | Glossary On
Versions: 1 2 3 4 5 6 7 8 9 10 11 12 13 14 15 16 17 18 19 20 21 22 23 24 25 26 27 28 29 30 31 32 33 34 35 36 37 38 39 40 41 42 43 44 45 46 47 48 49 50
000
ASUS44 KMEG 302110
RWRTN
TENNESSEE HOURLY STATE WEATHER ROUNDUP
NATIONAL WEATHER SERVICE MEMPHIS TN
400 PM CDT MON MAY 30 2016

TNZ002-004-019-021-049-052-054-088>092-302200-
WEST TENNESSEE

CITY           SKY/WX    TMP DP  RH WIND       PRES   REMARKS
MEMPHIS INTL   MOSUNNY   88  61  40 VRB7      29.99F
NWS MEMPHIS      N/A     87 N/A N/A MISG        N/A
JACKSON        MOSUNNY   88  59  37 NE8       29.99F
DYERSBURG      MOSUNNY   84  59  42 SE5       29.99F
UNION CITY     SUNNY     88  59  37 CALM      29.98F
PARIS          MOSUNNY   84  61  45 VRB5      30.01F
LEXINGTON      SUNNY     84  55  37 N7        29.99F
$$

TNZ008-025-027-028-033-062-065-066-302200-
NORTH MIDDLE TENNESSEE

CITY           SKY/WX    TMP DP  RH WIND       PRES   REMARKS
NASHVILLE      MOSUNNY   90  55  30 N7        30.00F
CLARKSVILLE    SUNNY     85  58  39 NW6       30.00F
SMYRNA         MOSUNNY   90  56  31 N12       30.00F
COOKEVILLE     SUNNY     86  63  45 VRB7      30.00F
CROSSVILLE     SUNNY     82  55  39 NW10      30.04F
$$

TNZ061-075-076-078-094-096-097-302200-
SOUTH MIDDLE TENNESSEE

CITY           SKY/WX    TMP DP  RH WIND       PRES   REMARKS
FAYETTEVILLE   SUNNY     88  59  37 VRB6      29.98F
TULLAHOMA      SUNNY     84  57  39 N7        30.01F
WINCHESTER     MOSUNNY   88  59  37 VRB6      29.99F
MCMINNVILLE    SUNNY     86  63  45 N9        30.00F
COLUMBIA       SUNNY     88  59  37 VRB7      29.98F
SHELBYVILLE    SUNNY     90  57  33 NW12      30.00F
$$

TNZ017-018-042-046-047-302200-
NORTHEAST TENNESSEE

CITY           SKY/WX    TMP DP  RH WIND       PRES   REMARKS
TRI CITIES     CLOUDY    76  64  66 NW7       29.99F
$$

TNZ012-013-036-069-073-074-302200-
CENTRAL EAST TENNESSEE

CITY           SKY/WX    TMP DP  RH WIND       PRES   REMARKS
KNOXVILLE      PTSUNNY   86  59  39 VRB3      29.96
OAK RIDGE      PTSUNNY   86  62  44 VRB5      29.98F
GATLINBURG       N/A     84  61  45 NE5       29.96S
$$

TNZ083-085-099-302200-
SOUTHEAST TENNESSEE

CITY           SKY/WX    TMP DP  RH WIND       PRES   REMARKS
CHATTANOOGA    PTSUNNY   91  59  33 N6        29.94F HX  90
$$

SKY/WX REPORTED AS FAIR MEANS FEW OR NO CLOUDS BELOW
12 THOUSAND FEET.





USA.gov is the U.S. government's official web portal to all federal, state and local government web resources and services.